Regional Weather Roundup
Issued by NWS Jackson, KY

Home | Current Version | Previous Version | Text Only | Print | Product List | Glossary On
Versions: 1 2 3 4 5 6 7 8 9 10 11 12 13 14 15 16 17 18 19 20 21 22 23 24 25 26 27 28 29 30 31 32 33 34 35 36 37 38 39 40 41 42 43 44 45 46 47 48 49 50
000
ASUS43 KJKL 251119
RWRJKL

EAST KENTUCKY HOURLY WEATHER ROUNDUP
NATIONAL WEATHER SERVICE JACKSON KY
600 AM EST THU DEC 25 2014

NOTE: "FAIR" INDICATES FEW OR NO CLOUDS BELOW 12,000 FEET WITH
NO SIGNIFICANT WEATHER AND/OR OBSTRUCTIONS TO VISIBILITY.

* THESE REPORTS ARE NOT UNDER NWS QUALITY CONTROL AND MAY NOT
  REPORT WEATHER SUCH AS PRECIPITATION AND FOG.

KYZ079-080-083-085-087-088-110-112-115-119-120-251200
...EASTERN KENTUCKY...

CITY           SKY/WX    TMP DP  RH WIND       PRES   REMARKS
JACKSON        CLOUDY    39  32  76 VRB5      29.96R
LONDON         CLOUDY    40  33  76 W7        30.00R
SOMERSET*      CLOUDY    37  32  81 W7        30.03R WCI  32
MONTICELLO*    CLOUDY    40  36  86 W9        30.05R WCI  34
MIDDLESBORO*   DRIZZLE   39  35  87 CALM      30.02R
HARLAN APT*    CLOUDY    37  32  81 W7        29.99R WCI  32
HAZARD APT*    CLOUDY    39  34  81 SW8       29.98  WCI  34
BLACK MTN*       N/A     27  27 100 W3          N/A
PIKEVILLE APT* CLOUDY    37  32  81 W8        29.96R WCI  31
BIG SANDY*     CLOUDY    40  33  76 W10G17    29.95R WCI  34
MOREHEAD APT*  CLOUDY    39  34  81 SW9G16    29.97R WCI  33
ASHLAND*         N/A    N/A N/A N/A W15         N/A
$$

KYZ035-036-041-042-044-050-067-078-099-251200
...CENTRAL KENTUCKY...

CITY           SKY/WX    TMP DP  RH WIND       PRES   REMARKS
MT STERLING*   CLOUDY    37  34  87 W12G18    29.98R WCI  30
FLEMING/MASON* CLOUDY    37  34  87 W13       29.95R WCI  29
DANVILLE*      RAIN      36  34  93 W10       30.00R WCI  28
RICHMOND*      CLOUDY    37  34  87 W9        29.98R WCI  31
LEXINGTON      CLOUDY    37  33  85 W13G22    29.98R WCI  29
FRANKFORT      CLOUDY    38  34  85 SW8       29.97R WCI  32
$$

KYZ091>093-OHZ055-061-077-WVZ005-015-034-035-042-251200
...SOUTHERN OHIO/WEST VIRGINIA...

CITY           SKY/WX    TMP DP  RH WIND       PRES   REMARKS
COVINGTON      DRIZZLE   38  31  76 W10       29.91R WCI  31
COLUMBUS       CLOUDY    38  32  79 W14G22    29.84R WCI  30
DAYTON         CLOUDY    37  33  85 W16G25    29.87R WCI  28
WILMINGTON     LGT RAIN  37  32  82 W16       29.87R WCI  28
HUNTINGTON     CLOUDY    41  33  73 W10G21    29.92R
CHARLESTON     CLOUDY    42  33  70 SW16G28   29.91R
PINEVILLE*     CLOUDY    41  37  86 MISG      29.95R
BECKLEY        CLOUDY    37  31  78 W10G20    29.86R WCI  30
BLUEFIELD      CLOUDY    38  30  73 W16G28    29.87R WCI  29
$$

VAZ002-007-008-TNZ017-027-036-066-071-251200
...SOUTHWEST VIRGINIA/EAST TENNESSEE...

CITY           SKY/WX    TMP DP  RH WIND       PRES   REMARKS
WISE*          CLOUDY    36  32  87 W8        29.94R WCI  29
JONESVILLE*    LGT RAIN  37  32  81 W8        30.01R WCI  31
ABINGDON*      CLOUDY    40  33  75 W12       29.94R WCI  34
BRISTOL        CLOUDY    40  33  76 W10       29.98R WCI  33
KNOXVILLE      CLOUDY    40  34  79 SW10      30.03R WCI  33
OAK RIDGE      CLOUDY    41  35  79 VRB3      30.04R
CROSSVILLE     CLOUDY    37  32  82 W9        30.02R WCI  30
NASHVILLE      CLOUDY    41  34  76 W8        30.07R
$$

...KEY TO REMARKS...
VSB - VISIBILITY IN MILES
WCI - WIND CHILL INDEX
HX  - HEAT INDEX

$$


USA.gov is the U.S. government's official web portal to all federal, state and local government web resources and services.